This demonstration page uses our WeatherBlox Daily Observations layout. Learn more.

Left ArrowRight Arrow

Hourly Observations for April 19, 2017

Temp ( °F °C ) Dew Point ( °F °C ) Humidity (%) Winds ( mph kmh ) Pressure ( in mb ) Visibility ( mi km ) Precip ( " mm )
12:53 am 00:53 Cloudy 49 9.4 38 3.3 66 66 SSW 7 11 29.88 1012 10 16 0.00 0.00
1:53 am 01:53 Cloudy with Light Rain 47 8.3 42 5.6 83 83 SW 10 17 29.90 1013 10 16 0.01 0.25
2:53 am 02:53 Cloudy 47 8.3 42 5.6 83 83 SSW 12 19 29.90 1012 10 16 0.01 0.25
3:53 am 03:53 Mostly Cloudy 46 7.8 40 4.4 79 79 SW 12 19 29.90 1013 10 16 0.00 0.00
4:53 am 04:53 Partly Cloudy 45 7.2 38 3.3 77 77 WSW 13 20 29.92 1013 10 16 0.00 0.00
5:53 am 05:53 Partly Cloudy 43 6.1 38 3.3 82 82 WSW 10 17 29.94 1014 10 16 0.00 0.00
6:53 am 06:53 Sunny 41 5 36 2.2 82 82 SW 9 15 29.96 1015 10 16 0.00 0.00
7:53 am 07:53 Sunny 42 5.6 36 2.2 79 79 W 12 19 29.98 1015 10 16 0.00 0.00
8:53 am 08:53 Sunny 44 6.7 34 1.1 68 68 SW 20 31 30.00 1016 10 16 0.00 0.00
9:53 am 09:53 Sunny 52 11.1 33 0.6 49 49 SW 15 24 30.00 1016 10 16 0.00 0.00
10:09 am 10:09 Sunny 52 11.1 31 -0.6 45 45 W 13 20 29.97 1015 10 16 0.00 0.00
10:53 am 10:53 Sunny 56 13.3 29 -1.7 36 36 WNW 23 37 29.98 1015 10 16 0.00 0.00
11:53 am 11:53 Sunny 58 14.4 31 -0.6 36 36 NW 24 39 29.99 1016 10 16 0.00 0.00
12:53 pm 12:53 Partly Cloudy 58 14.4 29 -1.7 33 33 WNW 28 44 30.01 1016 10 16 0.00 0.00
1:53 pm 13:53 Mostly Cloudy 58 14.4 36 2.2 44 44 NW 23 37 30.03 1017 10 16 0.00 0.00
2:53 pm 14:53 Mostly Sunny 59 15 33 0.6 38 38 NNW 20 31 30.04 1017 10 16 0.00 0.00
3:53 pm 15:53 Partly Cloudy 61 16.1 32 0 34 34 NW 20 31 30.04 1017 10 16 0.00 0.00
4:53 pm 16:53 Mostly Sunny 61 16.1 28 -2.2 29 29 NW 20 31 30.05 1018 10 16 0.00 0.00
5:53 pm 17:53 Sunny 61 16.1 28 -2.2 29 29 NNW 15 24 30.06 1018 10 16 0.00 0.00
6:53 pm 18:53 Sunny 59 15 29 -1.7 32 32 NNW 12 19 30.07 1018 10 16 0.00 0.00
7:53 pm 19:53 Sunny 53 11.7 30 -1.1 41 41 NNE 7 11 30.09 1019 10 16 0.00 0.00
8:53 pm 20:53 Clear 49 9.4 32 0 52 52 ENE 6 9 30.11 1020 10 16 0.00 0.00
9:53 pm 21:53 Clear 44 6.7 33 0.6 65 65 E 7 11 30.12 1020 10 16 0.00 0.00
10:53 pm 22:53 Clear 39 3.9 32 0 76 76 E 6 9 30.12 1020 10 16 0.00 0.00
11:53 pm 23:53 Clear 38 3.3 32 0 79 79 ENE 7 11 30.13 1020 10 16 0.00 0.00

Powered by AerisWeather